When you browse on this site, cookies collect data to enhance your experience and personalize the content and advertising you see.
Visit our Privacy Policy to learn more. By continuing to use the site, you agree to this use of cookies and data.
  • In Spain
  • List of Countries
  • For 7 days
  • Water Temperature
  • Satellite Maps
  • Weather Map
  • Weather Widgets
  • user-avatar
    Login

    Hourly Weather Aqtobe

    Today, 19 June, Wednesday

    Time Temperature Precipitation Wind Pressure Humidity
    00:00 +16°C° 0 mm 1 mps 738 mmHg 82%
    01:00 +15°C° 0 mm 0 mps 738 mmHg 84%
    02:00 +15°C° 0 mm 0 mps 738 mmHg 84%
    03:00 +14°C° 0 mm 0 mps 738 mmHg 84%
    04:00 +14°C° 0 mm 0 mps 738 mmHg 85%
    05:00 +18°C° 0.2 mm 1 mps 738 mmHg 77%
    06:00 +20°C° 0.2 mm 1 mps 738 mmHg 70%
    07:00 +21°C° 0.2 mm 2 mps 738 mmHg 62%
    08:00 +23°C° 0.5 mm 1 mps 738 mmHg 59%
    09:00 +23°C° 0.5 mm 1 mps 738 mmHg 57%
    10:00 +24°C° 0.5 mm 1 mps 738 mmHg 54%
    11:00 +25°C° 0 mm 1 mps 738 mmHg 49%
    12:00 +26°C° 0 mm 1 mps 738 mmHg 43%
    13:00 +28°C° 0 mm 1 mps 738 mmHg 37%
    14:00 +27°C° 0.1 mm 2 mps 738 mmHg 41%
    15:00 +27°C° 0.1 mm 2 mps 737 mmHg 44%
    16:00 +26°C° 0.1 mm 3 mps 737 mmHg 48%
    17:00 +25°C° 0 mm 2 mps 737 mmHg 50%
    18:00 +25°C° 0 mm 2 mps 737 mmHg 53%
    19:00 +24°C° 0 mm 2 mps 737 mmHg 56%
    20:00 +23°C° 0.1 mm 2 mps 737 mmHg 60%
    21:00 +21°C° 0.1 mm 3 mps 737 mmHg 63%
    22:00 +20°C° 0.1 mm 3 mps 738 mmHg 67%
    23:00 +19°C° 0 mm 3 mps 738 mmHg 70%

    Tomorrow, 20 June, Thursday

    Time Temperature Precipitation Wind Pressure Humidity
    00:00 +19°C° 0 mm 3 mps 737 mmHg 72%
    01:00 +18°C° 0 mm 3 mps 737 mmHg 75%
    02:00 +18°C° 0 mm 2 mps 737 mmHg 77%
    03:00 +17°C° 0 mm 2 mps 737 mmHg 78%
    04:00 +16°C° 0 mm 1 mps 737 mmHg 80%
    05:00 +19°C° 0 mm 1 mps 738 mmHg 74%
    06:00 +20°C° 0 mm 1 mps 738 mmHg 68%
    07:00 +22°C° 0 mm 1 mps 738 mmHg 61%
    08:00 +23°C° 0 mm 2 mps 738 mmHg 57%
    09:00 +25°C° 0 mm 2 mps 738 mmHg 52%
    10:00 +26°C° 0 mm 2 mps 738 mmHg 48%
    11:00 +27°C° 0 mm 2 mps 738 mmHg 45%
    12:00 +28°C° 0 mm 2 mps 738 mmHg 42%
    13:00 +29°C° 0 mm 3 mps 738 mmHg 39%
    14:00 +29°C° 0 mm 2 mps 738 mmHg 38%
    15:00 +29°C° 0 mm 2 mps 738 mmHg 37%
    16:00 +29°C° 0 mm 2 mps 738 mmHg 36%
    17:00 +29°C° 0 mm 2 mps 738 mmHg 38%
    18:00 +28°C° 0 mm 2 mps 738 mmHg 41%
    19:00 +28°C° 0 mm 2 mps 738 mmHg 44%
    20:00 +26°C° 0 mm 2 mps 738 mmHg 48%
    21:00 +24°C° 0 mm 2 mps 739 mmHg 53%
    22:00 +21°C° 0 mm 3 mps 739 mmHg 57%
    23:00 +20°C° 0 mm 2 mps 739 mmHg 63%

    Day after tomorrow, 21 June, Friday

    Time Temperature Precipitation Wind Pressure Humidity
    00:00 +20°C° 0 mm 1 mps 739 mmHg 68%
    01:00 +19°C° 0 mm 1 mps 739 mmHg 74%
    02:00 +19°C° 0 mm 1 mps 739 mmHg 74%
    03:00 +19°C° 0 mm 1 mps 739 mmHg 75%
    04:00 +19°C° 0 mm 1 mps 739 mmHg 76%
    05:00 +19°C° 0 mm 2 mps 740 mmHg 70%
    06:00 +21°C° 0 mm 2 mps 740 mmHg 64%
    07:00 +24°C° 0 mm 2 mps 740 mmHg 59%
    08:00 +25°C° 0 mm 2 mps 740 mmHg 53%
    09:00 +27°C° 0 mm 3 mps 740 mmHg 46%
    10:00 +28°C° 0 mm 3 mps 740 mmHg 40%
    11:00 +29°C° 0 mm 3 mps 740 mmHg 37%
    12:00 +30°C° 0 mm 3 mps 740 mmHg 34%
    13:00 +32°C° 0 mm 4 mps 740 mmHg 31%
    14:00 +32°C° 0 mm 4 mps 740 mmHg 30%
    15:00 +32°C° 0 mm 4 mps 740 mmHg 30%
    16:00 +32°C° 0 mm 4 mps 740 mmHg 29%
    17:00 +30°C° 0 mm 4 mps 740 mmHg 34%
    18:00 +29°C° 0 mm 4 mps 740 mmHg 38%
    19:00 +28°C° 0 mm 4 mps 740 mmHg 43%
    20:00 +26°C° 0 mm 4 mps 740 mmHg 49%
    21:00 +25°C° 0 mm 4 mps 740 mmHg 55%
    22:00 +22°C° 0 mm 4 mps 741 mmHg 61%
    23:00 +22°C° 0 mm 3 mps 741 mmHg 63%

    22 June, Saturday

    Time Temperature Precipitation Wind Pressure Humidity
    00:00 +21°C° 0 mm 3 mps 741 mmHg 65%
    01:00 +20°C° 0 mm 2 mps 741 mmHg 67%
    02:00 +20°C° 0 mm 2 mps 741 mmHg 68%
    03:00 +19°C° 0 mm 2 mps 741 mmHg 70%
    04:00 +19°C° 0 mm 2 mps 741 mmHg 71%
    05:00 +20°C° 0 mm 2 mps 742 mmHg 67%
    06:00 +22°C° 0 mm 3 mps 742 mmHg 62%
    07:00 +24°C° 0 mm 3 mps 742 mmHg 57%
    08:00 +26°C° 0 mm 3 mps 742 mmHg 51%
    09:00 +28°C° 0 mm 2 mps 743 mmHg 45%
    10:00 +29°C° 0 mm 2 mps 743 mmHg 39%
    11:00 +30°C° 0 mm 2 mps 743 mmHg 37%
    12:00 +30°C° 0 mm 2 mps 743 mmHg 34%
    13:00 +31°C° 0 mm 2 mps 743 mmHg 32%
    14:00 +31°C° 0 mm 2 mps 743 mmHg 33%
    15:00 +31°C° 0 mm 3 mps 743 mmHg 33%
    16:00 +31°C° 0 mm 3 mps 743 mmHg 34%
    17:00 +30°C° 0 mm 3 mps 743 mmHg 37%
    18:00 +29°C° 0 mm 3 mps 743 mmHg 40%
    19:00 +29°C° 0 mm 3 mps 743 mmHg 43%
    20:00 +27°C° 0 mm 3 mps 743 mmHg 46%
    21:00 +26°C° 0 mm 4 mps 743 mmHg 49%
    22:00 +25°C° 0 mm 5 mps 744 mmHg 51%
    23:00 +23°C° 0 mm 4 mps 744 mmHg 52%

    23 June, Sunday

    Time Temperature Precipitation Wind Pressure Humidity
    00:00 +22°C° 0 mm 4 mps 744 mmHg 52%
    01:00 +22°C° 0 mm 4 mps 744 mmHg 53%
    02:00 +21°C° 0 mm 4 mps 744 mmHg 54%
    03:00 +20°C° 0 mm 4 mps 744 mmHg 56%
    04:00 +20°C° 0 mm 3 mps 744 mmHg 57%
    05:00 +21°C° 0 mm 4 mps 745 mmHg 55%
    06:00 +22°C° 0 mm 4 mps 745 mmHg 52%
    07:00 +25°C° 0 mm 4 mps 745 mmHg 50%
    08:00 +27°C° 0 mm 4 mps 745 mmHg 45%
    09:00 +28°C° 0 mm 3 mps 745 mmHg 41%
    10:00 +30°C° 0 mm 3 mps 745 mmHg 37%
    11:00 +31°C° 0 mm 2 mps 745 mmHg 34%
    12:00 +32°C° 0 mm 2 mps 745 mmHg 31%
    13:00 +33°C° 0 mm 1 mps 744 mmHg 28%
    14:00 +33°C° 0 mm 1 mps 744 mmHg 29%
    15:00 +32°C° 0 mm 1 mps 744 mmHg 29%
    16:00 +32°C° 0 mm 1 mps 744 mmHg 30%
    17:00 +32°C° 0 mm 1 mps 744 mmHg 32%
    18:00 +31°C° 0 mm 1 mps 743 mmHg 35%
    19:00 +30°C° 0 mm 2 mps 743 mmHg 38%
    20:00 +29°C° 0 mm 2 mps 743 mmHg 40%
    21:00 +27°C° 0 mm 2 mps 743 mmHg 42%
    22:00 +26°C° 0 mm 3 mps 743 mmHg 45%
    23:00 +25°C° 0 mm 2 mps 743 mmHg 47%

    24 June, Monday

    Time Temperature Precipitation Wind Pressure Humidity
    00:00 +24°C° 0 mm 2 mps 743 mmHg 49%
    01:00 +24°C° 0 mm 2 mps 743 mmHg 52%
    02:00 +23°C° 0 mm 2 mps 743 mmHg 54%
    03:00 +22°C° 0 mm 1 mps 743 mmHg 56%
    04:00 +21°C° 0 mm 1 mps 743 mmHg 58%
    05:00 +24°C° 0 mm 1 mps 744 mmHg 52%
    06:00 +26°C° 0 mm 1 mps 744 mmHg 46%
    07:00 +28°C° 0 mm 1 mps 744 mmHg 40%
    08:00 +29°C° 0 mm 1 mps 744 mmHg 36%
    09:00 +31°C° 0 mm 2 mps 744 mmHg 32%
    10:00 +34°C° 0 mm 2 mps 744 mmHg 28%
    11:00 +35°C° 0 mm 3 mps 744 mmHg 26%
    12:00 +36°C° 0 mm 4 mps 744 mmHg 24%
    13:00 +37°C° 0 mm 5 mps 744 mmHg 22%
    14:00 +37°C° 0 mm 5 mps 744 mmHg 22%
    15:00 +37°C° 0 mm 5 mps 743 mmHg 22%
    16:00 +37°C° 0 mm 5 mps 743 mmHg 22%
    17:00 +36°C° 0 mm 4 mps 743 mmHg 27%
    18:00 +35°C° 0 mm 4 mps 743 mmHg 31%
    19:00 +33°C° 0 mm 4 mps 743 mmHg 36%
    20:00 +30°C° 0 mm 4 mps 743 mmHg 42%
    21:00 +28°C° 0 mm 3 mps 743 mmHg 49%
    22:00 +26°C° 0 mm 3 mps 743 mmHg 55%
    23:00 +26°C° 0 mm 2 mps 743 mmHg 58%
    Show more